SWA345 KLAX-KBWI

Flight info

Callsign SWA345
Flight time N/A
Altitude 37000
Route DOTSS2 CLEEE PKE DRK LOWBO MMB SGF FAM IIU ZIEBR SITTR CJAAE RAVNN8
Aircraft B738/M-SADE2E3GIJ4RWZ/LB1D1

Departure

Time 2026-04-26 05:10
Airport Los Angeles International Airport (KLAX)

Arrival

Time N/A
Airport Baltimore/Washington International Thurgood Marshall Airport (KBWI)
Time Latitude Longitude Altitude Speed Heading
2026-04-26 04:35 33.94111 -118.40377 125 ft 0 kts 268°
2026-04-26 04:53 33.94111 -118.40376 125 ft 2 kts 268°
2026-04-26 04:53 33.94112 -118.40354 123 ft 3 kts 270°
2026-04-26 04:53 33.94112 -118.40341 120 ft 3 kts 257°
2026-04-26 04:53 33.94120 -118.40320 120 ft 3 kts 227°
2026-04-26 04:54 33.94124 -118.40314 121 ft 0 kts 218°
2026-04-26 05:00 33.94120 -118.40316 120 ft 2 kts 207°
2026-04-26 05:00 33.94103 -118.40319 123 ft 3 kts 181°
2026-04-26 05:00 33.94076 -118.40317 124 ft 4 kts 173°
2026-04-26 05:01 33.94047 -118.40313 122 ft 4 kts 173°
2026-04-26 05:01 33.94011 -118.40307 123 ft 7 kts 172°
2026-04-26 05:01 33.93943 -118.40297 123 ft 12 kts 173°
2026-04-26 05:01 33.93867 -118.40280 123 ft 8 kts 148°
2026-04-26 05:02 33.93857 -118.40218 123 ft 8 kts 85°
2026-04-26 05:02 33.93865 -118.40128 124 ft 13 kts 84°
2026-04-26 05:02 33.93878 -118.40007 125 ft 16 kts 82°
2026-04-26 05:02 33.93892 -118.39868 123 ft 18 kts 83°
2026-04-26 05:03 33.93907 -118.39716 125 ft 18 kts 83°
2026-04-26 05:03 33.93924 -118.39567 125 ft 18 kts 83°
2026-04-26 05:03 33.93938 -118.39414 121 ft 19 kts 83°
2026-04-26 05:03 33.93957 -118.39242 122 ft 22 kts 82°
2026-04-26 05:04 33.93975 -118.39057 125 ft 22 kts 83°
2026-04-26 05:04 33.93994 -118.38875 125 ft 22 kts 83°
2026-04-26 05:04 33.94011 -118.38697 121 ft 21 kts 83°
2026-04-26 05:04 33.94030 -118.38528 125 ft 20 kts 83°
2026-04-26 05:05 33.94045 -118.38366 123 ft 19 kts 83°
2026-04-26 05:05 33.94063 -118.38196 125 ft 21 kts 84°
2026-04-26 05:05 33.94076 -118.38049 125 ft 13 kts 92°
2026-04-26 05:05 33.94076 -118.38042 125 ft 0 kts 98°
2026-04-26 05:07 33.94068 -118.38022 121 ft 6 kts 121°
2026-04-26 05:07 33.94031 -118.37995 122 ft 6 kts 163°
2026-04-26 05:08 33.93997 -118.37996 123 ft 4 kts 211°
2026-04-26 05:08 33.93986 -118.38028 125 ft 0 kts 259°
2026-04-26 05:08 33.93985 -118.38029 125 ft 2 kts 259°
2026-04-26 05:09 33.93971 -118.38156 125 ft 39 kts 263°
2026-04-26 05:09 33.93902 -118.38832 125 ft 122 kts 263°
2026-04-26 05:09 33.93768 -118.40111 264 ft 177 kts 263°
2026-04-26 05:09 33.93603 -118.41727 682 ft 215 kts 263°
2026-04-26 05:10 33.93404 -118.43653 1258 ft 242 kts 263°
2026-04-26 05:10 33.93160 -118.45604 1730 ft 233 kts 253°
2026-04-26 05:10 33.92304 -118.47243 2453 ft 235 kts 227°
2026-04-26 05:10 33.91184 -118.48684 3205 ft 237 kts 229°
2026-04-26 05:11 33.90126 -118.50217 3927 ft 239 kts 232°
2026-04-26 05:11 33.89088 -118.51779 4648 ft 240 kts 232°
2026-04-26 05:11 33.88027 -118.53344 4956 ft 240 kts 231°
2026-04-26 05:11 33.86927 -118.54926 4983 ft 256 kts 229°
2026-04-26 05:12 33.85537 -118.56332 4980 ft 266 kts 207°
2026-04-26 05:12 33.83719 -118.56665 5015 ft 272 kts 171°
2026-04-26 05:12 33.81926 -118.55900 5027 ft 276 kts 157°
2026-04-26 05:12 33.80147 -118.54998 5006 ft 278 kts 162°
2026-04-26 05:13 33.78290 -118.54362 5010 ft 277 kts 168°
2026-04-26 05:13 33.76427 -118.53858 5007 ft 277 kts 169°
2026-04-26 05:13 33.74544 -118.53365 5033 ft 279 kts 169°
2026-04-26 05:13 33.72630 -118.52782 5693 ft 278 kts 167°
2026-04-26 05:14 33.70793 -118.52163 6633 ft 278 kts 165°
2026-04-26 05:14 33.68944 -118.51380 7279 ft 292 kts 153°
2026-04-26 05:14 33.67472 -118.49637 7861 ft 303 kts 117°
2026-04-26 05:14 33.66945 -118.47207 8855 ft 304 kts 94°
2026-04-26 05:15 33.66932 -118.44660 9678 ft 306 kts 90°
2026-04-26 05:15 33.66692 -118.42099 10354 ft 312 kts 108°
2026-04-26 05:15 33.65923 -118.39575 10602 ft 334 kts 115°
2026-04-26 05:15 33.65001 -118.36915 10774 ft 357 kts 114°
2026-04-26 05:16 33.64113 -118.34030 10913 ft 381 kts 104°
2026-04-26 05:16 33.64245 -118.30820 11328 ft 392 kts 71°
2026-04-26 05:16 33.65263 -118.27852 12266 ft 387 kts 67°
2026-04-26 05:16 33.65877 -118.24652 12404 ft 409 kts 89°
2026-04-26 05:17 33.65541 -118.21226 13222 ft 399 kts 102°
2026-04-26 05:17 33.65072 -118.18067 14511 ft 387 kts 99°
2026-04-26 05:17 33.64832 -118.14776 14896 ft 399 kts 93°
2026-04-26 05:17 33.64793 -118.11455 15731 ft 395 kts 90°
2026-04-26 05:18 33.64819 -118.08176 16572 ft 393 kts 92°
2026-04-26 05:18 33.64741 -118.04856 16944 ft 405 kts 93°
2026-04-26 05:18 33.64635 -118.01408 17048 ft 425 kts 93°
2026-04-26 05:18 33.64539 -117.97770 17039 ft 444 kts 92°
2026-04-26 05:19 33.64466 -117.94073 17719 ft 442 kts 92°
2026-04-26 05:19 33.64426 -117.90394 18406 ft 442 kts 90°
2026-04-26 05:19 33.64449 -117.86674 18820 ft 448 kts 90°
2026-04-26 05:19 33.64472 -117.82901 19084 ft 457 kts 90°
2026-04-26 05:20 33.64540 -117.79047 19375 ft 465 kts 87°
2026-04-26 05:20 33.64916 -117.75171 19660 ft 472 kts 78°
2026-04-26 05:20 33.65673 -117.71364 20335 ft 466 kts 75°
2026-04-26 05:20 33.66515 -117.67630 21191 ft 460 kts 73°
2026-04-26 05:21 33.67345 -117.63936 21916 ft 457 kts 74°
2026-04-26 05:21 33.68129 -117.60269 22355 ft 462 kts 75°
2026-04-26 05:21 33.68912 -117.56467 22345 ft 478 kts 76°
2026-04-26 05:21 33.69688 -117.52533 22491 ft 486 kts 77°
2026-04-26 05:22 33.70415 -117.48589 23135 ft 483 kts 76°
2026-04-26 05:22 33.71171 -117.44652 23674 ft 484 kts 76°
2026-04-26 05:22 33.71976 -117.40705 23901 ft 490 kts 75°
2026-04-26 05:22 33.72787 -117.36702 24184 ft 494 kts 76°
2026-04-26 05:23 33.73546 -117.32669 24558 ft 497 kts 77°
2026-04-26 05:23 33.74250 -117.28590 24934 ft 499 kts 78°
2026-04-26 05:23 33.74939 -117.24487 25249 ft 503 kts 79°
2026-04-26 05:23 33.75327 -117.20286 25450 ft 508 kts 95°
2026-04-26 05:24 33.74708 -117.16122 25762 ft 507 kts 105°
2026-04-26 05:24 33.74219 -117.11923 26173 ft 511 kts 92°
2026-04-26 05:24 33.74369 -117.07670 26886 ft 505 kts 86°
2026-04-26 05:24 33.74672 -117.03482 27419 ft 504 kts 86°
2026-04-26 05:25 33.74855 -116.99251 27568 ft 511 kts 92°
2026-04-26 05:25 33.74653 -116.94944 27469 ft 522 kts 96°
2026-04-26 05:25 33.74386 -116.90583 27827 ft 523 kts 95°
2026-04-26 05:25 33.74261 -116.86235 28435 ft 519 kts 94°
2026-04-26 05:26 33.74084 -116.77432 28651 ft 534 kts 93°
2026-04-26 05:26 33.74009 -116.73026 28882 ft 536 kts 93°
2026-04-26 05:26 33.73926 -116.68557 29359 ft 534 kts 93°
2026-04-26 05:27 33.73831 -116.64040 29913 ft 532 kts 94°
2026-04-26 05:27 33.73728 -116.59647 30186 ft 532 kts 94°
2026-04-26 05:27 33.73616 -116.55194 30359 ft 535 kts 94°
2026-04-26 05:27 33.73498 -116.50720 30601 ft 536 kts 94°
2026-04-26 05:28 33.73379 -116.46240 30952 ft 536 kts 95°
2026-04-26 05:28 33.73260 -116.41769 31315 ft 535 kts 95°
2026-04-26 05:28 33.73141 -116.37297 31625 ft 536 kts 95°
2026-04-26 05:28 33.73019 -116.32822 31851 ft 538 kts 95°
2026-04-26 05:29 33.72895 -116.28321 32053 ft 541 kts 95°
2026-04-26 05:29 33.72770 -116.23806 32317 ft 542 kts 95°
2026-04-26 05:29 33.72644 -116.19272 32650 ft 541 kts 95°
2026-04-26 05:29 33.72517 -116.14750 32988 ft 541 kts 95°
2026-04-26 05:30 33.72388 -116.10237 33244 ft 542 kts 95°
2026-04-26 05:30 33.72461 -116.05673 33169 ft 555 kts 85°
2026-04-26 05:30 33.73280 -116.01081 32885 ft 567 kts 71°
2026-04-26 05:30 33.74686 -115.96679 33446 ft 557 kts 65°
2026-04-26 05:31 33.76161 -115.92503 34381 ft 540 kts 68°
2026-04-26 05:31 33.77508 -115.88332 35012 ft 532 kts 68°
2026-04-26 05:31 33.80146 -115.79944 35112 ft 542 kts 70°
2026-04-26 05:32 33.82605 -115.71297 35210 ft 551 kts 72°
2026-04-26 05:32 33.84872 -115.62406 35508 ft 554 kts 73°
2026-04-26 05:33 33.85999 -115.57988 35855 ft 551 kts 73°
2026-04-26 05:33 33.87149 -115.53601 36229 ft 548 kts 72°
2026-04-26 05:33 33.88318 -115.49254 36614 ft 544 kts 72°
2026-04-26 05:33 33.89496 -115.44941 36851 ft 543 kts 72°
2026-04-26 05:34 33.91882 -115.36265 36810 ft 544 kts 72°
2026-04-26 05:34 33.94231 -115.27676 36785 ft 541 kts 72°
2026-04-26 05:35 33.96564 -115.19072 36781 ft 541 kts 72°
2026-04-26 05:35 33.98510 -115.11864 36861 ft 547 kts 72°
2026-04-26 05:36 34.00877 -115.03075 36925 ft 554 kts 72°
2026-04-26 05:36 34.02072 -114.98638 37204 ft 554 kts 75°
2026-04-26 05:36 34.03253 -114.94255 37671 ft 547 kts 75°
2026-04-26 05:37 34.04420 -114.89904 38052 ft 543 kts 75°
2026-04-26 05:37 34.05574 -114.85583 38194 ft 543 kts 75°
2026-04-26 05:37 34.07896 -114.76859 38233 ft 549 kts 75°
2026-04-26 05:38 34.10232 -114.68086 38501 ft 548 kts 74°
2026-04-26 05:38 34.11421 -114.63716 38693 ft 545 kts 73°
2026-04-26 05:38 34.12641 -114.59374 38761 ft 545 kts 73°
2026-04-26 05:39 34.15125 -114.50694 38760 ft 548 kts 73°
2026-04-26 05:39 34.17619 -114.41950 38735 ft 552 kts 73°
2026-04-26 05:40 34.20092 -114.33171 38732 ft 554 kts 73°
2026-04-26 05:40 34.22547 -114.24391 38752 ft 555 kts 73°
2026-04-26 05:41 34.25014 -114.15541 38757 ft 556 kts 73°
2026-04-26 05:41 34.27483 -114.06661 38740 ft 556 kts 73°
2026-04-26 05:42 34.29940 -113.97800 38744 ft 556 kts 73°
2026-04-26 05:42 34.32393 -113.88929 38737 ft 556 kts 73°